| time (UTC) | temp F | wind direction | speed MPH | gust MPH | rain 1hr in | rain 24hr in | rain mn in | humidity % | barometer mb |
| 20260509033232 | 58 | 197 | 0.0 | 0.0 | 0.00 | 0.00 | 0.00 | 92 | 1009.7 |
| 20260509032731 | 58 | 198 | 0.0 | 0.0 | 0.00 | 0.00 | 0.00 | 91 | 1009.6 |
| 20260509032231 | 59 | 198 | 0.0 | 2.0 | 0.00 | 0.00 | 0.00 | 91 | 1009.6 |
| 20260509031409 | 59 | 153 | 1.0 | 4.0 | 0.00 | 0.00 | 0.00 | 91 | 1009.4 |
| 20260509030729 | 59 | 198 | 1.0 | 3.0 | 0.00 | 0.00 | 0.00 | 91 | 1009.3 |
| 20260509030229 | 59 | 183 | 1.0 | 2.0 | 0.00 | 0.00 | 0.00 | 90 | 1009.3 |
| 20260509025729 | 59 | 175 | 1.0 | 4.0 | 0.00 | 0.00 | 0.00 | 90 | 1009.3 |
| 20260509025320 | 59 | 174 | 1.0 | 3.0 | 0.00 | 0.00 | 0.00 | 90 | 1009.4 |
| 20260509025231 | 59 | 174 | 1.0 | 3.0 | 0.00 | 0.00 | 0.00 | 90 | 1009.4 |
| 20260509024729 | 59 | 195 | 1.0 | 4.0 | 0.00 | 0.00 | 0.00 | 91 | 1009.3 |
| 20260509024229 | 59 | 172 | 1.0 | 3.0 | 0.00 | 0.00 | 0.00 | 91 | 1009.3 |
| 20260509023729 | 59 | 174 | 1.0 | 3.0 | 0.00 | 0.00 | 0.00 | 90 | 1009.3 |
| 20260509023232 | 59 | 184 | 0.0 | 4.0 | 0.00 | 0.00 | 0.00 | 90 | 1009.3 |
| 20260509020229 | 60 | 174 | 0.0 | 2.0 | 0.00 | 0.00 | 0.00 | 87 | 1009.2 |
| 20260509013231 | 61 | 153 | 1.0 | 4.0 | 0.00 | 0.00 | 0.00 | 86 | 1009.0 |
| 20260509012232 | 62 | 186 | 2.0 | 5.0 | 0.00 | 0.00 | 0.00 | 86 | 1009.0 |
| 20260509011743 | 62 | 175 | 1.0 | 3.0 | 0.00 | 0.00 | 0.00 | 86 | 1009.0 |
| 20260509011251 | 62 | 211 | 1.0 | 3.0 | 0.00 | 0.00 | 0.00 | 85 | 1009.1 |
| 20260509005731 | 63 | 192 | 0.0 | 1.0 | 0.00 | 0.00 | 0.00 | 83 | 1009.3 |
| 20260509005231 | 64 | 192 | 0.0 | 1.0 | 0.00 | 0.00 | 0.00 | 82 | 1009.3 |
| 20260509004231 | 64 | 221 | 1.0 | 2.0 | 0.00 | 0.00 | 0.00 | 81 | 1009.4 |
| 20260509003231 | 65 | 174 | 1.0 | 3.0 | 0.00 | 0.00 | 0.00 | 80 | 1009.2 |
| 20260509002729 | 65 | 190 | 2.0 | 3.0 | 0.00 | 0.00 | 0.00 | 79 | 1009.2 |
| 20260509002229 | 66 | 153 | 2.0 | 5.0 | 0.00 | 0.00 | 0.00 | 79 | 1008.8 |
| 20260509001729 | 66 | 172 | 2.0 | 4.0 | 0.00 | 0.00 | 0.00 | 78 | 1008.9 |
| 20260509001229 | 66 | 169 | 2.0 | 5.0 | 0.00 | 0.00 | 0.00 | 77 | 1009.0 |
| 20260509000743 | 66 | 163 | 2.0 | 4.0 | 0.00 | 0.00 | 0.00 | 77 | 1009.2 |
| 20260509000229 | 67 | 155 | 1.0 | 5.0 | 0.00 | 0.00 | 0.00 | 77 | 1009.2 |
| 20260508235731 | 67 | 238 | 1.0 | 2.0 | 0.00 | 0.00 | 0.00 | 76 | 1009.3 |
| 20260508235229 | 67 | 204 | 1.0 | 4.0 | 0.00 | 0.00 | 0.00 | 75 | 1009.4 |
| 20260508234729 | 67 | 137 | 1.0 | 4.0 | 0.00 | 0.00 | 0.00 | 77 | 1009.5 |
| 20260508234243 | 67 | 205 | 1.0 | 3.0 | 0.00 | 0.00 | 0.00 | 75 | 1009.6 |
| 20260508233743 | 67 | 217 | 1.0 | 2.0 | 0.00 | 0.00 | 0.00 | 75 | 1009.6 |
| 20260508233326 | 67 | 160 | 2.0 | 5.0 | 0.00 | 0.00 | 0.00 | 74 | 1009.7 |
| 20260508232733 | 67 | 159 | 2.0 | 5.0 | 0.00 | 0.00 | 0.00 | 74 | 1009.6 |
| 20260508232229 | 68 | 179 | 2.0 | 7.0 | 0.00 | 0.00 | 0.00 | 72 | 1009.8 |
| 20260508231731 | 68 | 200 | 2.0 | 6.0 | 0.00 | 0.00 | 0.00 | 72 | 1009.7 |
| 20260508231229 | 68 | 248 | 2.0 | 5.0 | 0.00 | 0.00 | 0.00 | 71 | 1009.7 |
| 20260508230729 | 69 | 183 | 2.0 | 4.0 | 0.00 | 0.00 | 0.00 | 71 | 1009.7 |
| 20260508230301 | 69 | 226 | 3.0 | 6.0 | 0.00 | 0.00 | 0.00 | 71 | 1009.7 |
| 20260508225731 | 69 | 133 | 3.0 | 9.0 | 0.00 | 0.00 | 0.00 | 69 | 1009.6 |
| 20260508225231 | 70 | 118 | 3.0 | 5.0 | 0.00 | 0.00 | 0.00 | 70 | 1009.8 |
| 20260508224733 | 70 | 124 | 2.0 | 8.0 | 0.00 | 0.00 | 0.00 | 71 | 1009.7 |
| 20260508224229 | 69 | 203 | 2.0 | 5.0 | 0.00 | 0.00 | 0.00 | 72 | 1009.8 |
| 20260508223731 | 68 | 197 | 3.0 | 6.0 | 0.00 | 0.00 | 0.00 | 74 | 1009.7 |
| 20260508223231 | 68 | 152 | 3.0 | 7.0 | 0.00 | 0.00 | 0.00 | 72 | 1009.7 |
| 20260508222729 | 68 | 159 | 3.0 | 8.0 | 0.00 | 0.00 | 0.00 | 72 | 1009.8 |
| 20260508222229 | 68 | 168 | 2.0 | 6.0 | 0.00 | 0.00 | 0.00 | 74 | 1009.8 |
| 20260508221729 | 68 | 253 | 2.0 | 2.0 | 0.00 | 0.00 | 0.00 | 72 | 1009.6 |